Location: Bad Salzschlirf
(50.3750°N, 9.3000°E)
Time: 01:29:33
(UTC+02:00)

ISS - Visible Passes

Search period start: 20 July 2018 00:00
Search period end: 30 July 2018 00:00
Orbit: 402 x 408 km, 51.6° (Epoch: 20 July)

Date Brightness Start Highest point End Pass type
(mag) Time Alt. Az. Time Alt. Az. Time Alt. Az.
20 Jul -3.9 00:38:46 10° WSW 00:42:03 90° NNW 00:45:22 10° ENE visible
20 Jul -3.6 02:15:23 10° W 02:18:40 71° N 02:21:58 10° E visible
20 Jul -3.7 03:51:56 10° WNW 03:55:09 51° SSW 03:58:22 10° SE visible
20 Jul -2.3 22:11:36 10° S 22:13:53 18° SE 22:16:12 10° E visible
20 Jul -4.0 23:46:42 10° WSW 23:49:58 69° SSE 23:53:15 10° ENE visible
21 Jul -3.5 01:23:14 10° W 01:26:31 68° N 01:29:49 10° E visible
21 Jul -4.0 02:59:48 10° WNW 03:03:05 73° SSW 03:06:22 10° ESE visible
21 Jul -2.4 04:36:45 10° W 04:39:12 19° SW 04:41:38 10° S visible
21 Jul -3.6 22:54:44 10° SW 22:57:55 48° SSE 23:01:06 10° E visible
22 Jul -3.6 00:31:04 10° W 00:34:21 72° N 00:37:39 10° E visible
22 Jul -3.9 02:07:40 10° WNW 02:10:59 86° NNE 02:14:17 10° ESE visible
22 Jul -3.0 03:44:20 10° W 03:47:16 29° SSW 03:50:11 10° SSE visible
22 Jul -3.1 22:02:56 10° SSW 22:05:54 32° SSE 22:08:52 10° E visible
22 Jul -3.8 23:38:55 10° W 23:42:12 83° NNW 23:45:31 10° ENE visible
23 Jul -3.7 01:15:32 10° WNW 01:18:50 73° N 01:20:50 22° E visible
23 Jul -2.0 02:52:06 10° W 02:53:20 20° W 02:53:20 20° W visible
23 Jul -3.9 22:46:48 10° WSW 22:50:04 77° SSE 22:53:22 10° ENE visible
24 Jul -3.5 00:23:22 10° W 00:26:39 68° N 00:29:08 16° E visible
24 Jul -2.5 01:59:55 10° WNW 02:01:43 29° W 02:01:43 29° W visible
24 Jul -3.7 21:54:45 10° SW 21:57:58 55° SSE 22:01:11 10° ENE visible
24 Jul -3.6 23:31:10 10° W 23:34:26 69° N 23:37:44 10° E visible
25 Jul -3.8 01:07:45 10° WNW 01:10:45 72° W 01:10:45 72° W visible
25 Jul -3.7 22:38:58 10° W 22:42:15 78° N 22:45:33 10° ENE visible
26 Jul -3.8 00:15:35 10° WNW 00:18:52 77° N 00:19:58 39° E visible
26 Jul -1.3 01:52:10 10° W 01:52:35 13° W 01:52:35 13° W visible
26 Jul -3.6 23:23:22 10° W 23:26:39 69° N 23:29:17 15° E visible
27 Jul -2.6 00:59:55 10° WNW 01:01:53 32° W 01:01:53 32° W visible
27 Jul -3.5 22:31:09 10° W 22:34:26 68° N 22:37:42 10° E visible
28 Jul -4.0 00:07:43 10° WNW 00:11:00 79° SSW 00:11:16 71° SE visible
28 Jul -3.8 23:15:30 10° WNW 23:18:48 82° NNE 23:20:40 24° E visible
29 Jul -1.7 00:52:07 10° W 00:53:17 18° W 00:53:17 18° W visible
29 Jul -3.6 22:23:16 10° W 22:26:32 71° N 22:29:51 10° E visible
